When you browse on this site, cookies collect data to enhance your experience and personalize the content and advertising you see.
Visit our Privacy Policy to learn more. By continuing to use the site, you agree to this use of cookies and data.
  • In Italy
  • List of Countries
  • For 7 days
  • Water Temperature
  • Satellite Maps
  • Weather Map
  • Weather Widgets
  • user-avatar
    Login

    Hourly Weather Belfort

    Today, 19 April, Friday

    Time Temperature Precipitation Wind Pressure Humidity
    00:00 +6°C° 0 mm 2 mps 761 mmHg 58%
    01:00 +6°C° 0 mm 2 mps 762 mmHg 59%
    02:00 +6°C° 0 mm 2 mps 762 mmHg 58%
    03:00 +5°C° 0 mm 2 mps 762 mmHg 58%
    04:00 +5°C° 0 mm 2 mps 762 mmHg 58%
    05:00 +6°C° 0 mm 2 mps 762 mmHg 55%
    06:00 +8°C° 0 mm 2 mps 762 mmHg 53%
    07:00 +9°C° 0 mm 2 mps 762 mmHg 51%
    08:00 +12°C° 0 mm 2 mps 762 mmHg 47%
    09:00 +14°C° 0 mm 2 mps 762 mmHg 44%
    10:00 +17°C° 0 mm 2 mps 763 mmHg 40%
    11:00 +18°C° 0 mm 2 mps 762 mmHg 38%
    12:00 +19°C° 0 mm 2 mps 762 mmHg 36%
    13:00 +20°C° 0 mm 2 mps 762 mmHg 33%
    14:00 +19°C° 0 mm 2 mps 762 mmHg 35%
    15:00 +19°C° 0 mm 3 mps 762 mmHg 36%
    16:00 +19°C° 0 mm 3 mps 761 mmHg 38%
    17:00 +16°C° 0 mm 3 mps 761 mmHg 43%
    18:00 +13°C° 0 mm 3 mps 761 mmHg 48%
    19:00 +12°C° 0 mm 2 mps 761 mmHg 53%
    20:00 +9°C° 0 mm 2 mps 761 mmHg 52%
    21:00 +8°C° 0 mm 2 mps 761 mmHg 52%
    22:00 +7°C° 0 mm 2 mps 761 mmHg 51%
    23:00 +6°C° 0 mm 2 mps 761 mmHg 51%

    Tomorrow, 20 April, Saturday

    Time Temperature Precipitation Wind Pressure Humidity
    00:00 +7°C° 0 mm 1 mps 761 mmHg 52%
    01:00 +6°C° 0 mm 1 mps 761 mmHg 52%
    02:00 +6°C° 0 mm 1 mps 760 mmHg 54%
    03:00 +5°C° 0 mm 1 mps 760 mmHg 57%
    04:00 +5°C° 0 mm 1 mps 760 mmHg 59%
    05:00 +6°C° 0 mm 1 mps 760 mmHg 58%
    06:00 +6°C° 0 mm 2 mps 760 mmHg 57%
    07:00 +8°C° 0 mm 2 mps 760 mmHg 56%
    08:00 +10°C° 0 mm 2 mps 760 mmHg 53%
    09:00 +12°C° 0 mm 3 mps 760 mmHg 50%
    10:00 +14°C° 0 mm 3 mps 760 mmHg 47%
    11:00 +16°C° 0 mm 3 mps 760 mmHg 43%
    12:00 +17°C° 0 mm 3 mps 759 mmHg 39%
    13:00 +18°C° 0 mm 3 mps 759 mmHg 35%
    14:00 +18°C° 0 mm 3 mps 759 mmHg 35%
    15:00 +17°C° 0 mm 3 mps 758 mmHg 36%
    16:00 +17°C° 0 mm 3 mps 758 mmHg 37%
    17:00 +14°C° 0 mm 3 mps 758 mmHg 42%
    18:00 +13°C° 0 mm 3 mps 758 mmHg 47%
    19:00 +12°C° 0 mm 2 mps 757 mmHg 53%
    20:00 +10°C° 0 mm 2 mps 757 mmHg 53%
    21:00 +9°C° 0 mm 2 mps 757 mmHg 53%
    22:00 +9°C° 0 mm 1 mps 757 mmHg 53%
    23:00 +8°C° 0 mm 1 mps 757 mmHg 52%

    Day after tomorrow, 21 April, Sunday

    Time Temperature Precipitation Wind Pressure Humidity
    00:00 +8°C° 0 mm 1 mps 757 mmHg 51%
    01:00 +7°C° 0 mm 1 mps 756 mmHg 49%
    02:00 +7°C° 0 mm 1 mps 756 mmHg 50%
    03:00 +7°C° 0 mm 1 mps 756 mmHg 50%
    04:00 +6°C° 0 mm 1 mps 755 mmHg 50%
    05:00 +8°C° 0 mm 1 mps 755 mmHg 48%
    06:00 +9°C° 0 mm 1 mps 755 mmHg 46%
    07:00 +10°C° 0 mm 1 mps 755 mmHg 43%
    08:00 +12°C° 0 mm 2 mps 754 mmHg 40%
    09:00 +14°C° 0 mm 2 mps 754 mmHg 36%
    10:00 +16°C° 0 mm 2 mps 754 mmHg 33%
    11:00 +17°C° 0 mm 3 mps 754 mmHg 32%
    12:00 +18°C° 0 mm 3 mps 753 mmHg 32%
    13:00 +18°C° 0 mm 3 mps 753 mmHg 32%
    14:00 +18°C° 0 mm 3 mps 753 mmHg 33%
    15:00 +18°C° 0 mm 4 mps 752 mmHg 35%
    16:00 +17°C° 0 mm 4 mps 752 mmHg 36%
    17:00 +14°C° 0 mm 3 mps 752 mmHg 42%
    18:00 +13°C° 0 mm 3 mps 751 mmHg 48%
    19:00 +11°C° 0 mm 3 mps 751 mmHg 54%
    20:00 +10°C° 0 mm 2 mps 751 mmHg 55%
    21:00 +9°C° 0 mm 2 mps 751 mmHg 56%
    22:00 +8°C° 0 mm 2 mps 751 mmHg 57%
    23:00 +7°C° 0 mm 2 mps 751 mmHg 60%

    22 April, Monday

    Time Temperature Precipitation Wind Pressure Humidity
    00:00 +7°C° 0 mm 2 mps 751 mmHg 62%
    01:00 +6°C° 0 mm 2 mps 751 mmHg 65%
    02:00 +5°C° 0 mm 2 mps 751 mmHg 68%
    03:00 +5°C° 0 mm 2 mps 751 mmHg 70%
    04:00 +5°C° 0 mm 2 mps 750 mmHg 73%
    05:00 +5°C° 0 mm 3 mps 751 mmHg 71%
    06:00 +7°C° 0 mm 3 mps 751 mmHg 70%
    07:00 +8°C° 0 mm 3 mps 751 mmHg 68%
    08:00 +8°C° 0 mm 4 mps 751 mmHg 66%
    09:00 +9°C° 0 mm 5 mps 751 mmHg 65%
    10:00 +11°C° 0 mm 6 mps 751 mmHg 63%
    11:00 +11°C° 0 mm 6 mps 751 mmHg 61%
    12:00 +11°C° 0 mm 6 mps 751 mmHg 60%
    13:00 +12°C° 0 mm 5 mps 751 mmHg 59%
    14:00 +13°C° 0 mm 5 mps 751 mmHg 55%
    15:00 +14°C° 0 mm 5 mps 750 mmHg 52%
    16:00 +15°C° 0 mm 5 mps 750 mmHg 48%
    17:00 +14°C° 0 mm 5 mps 750 mmHg 55%
    18:00 +13°C° 0 mm 5 mps 750 mmHg 62%
    19:00 +12°C° 0 mm 4 mps 749 mmHg 69%
    20:00 +12°C° 0 mm 5 mps 749 mmHg 70%
    21:00 +10°C° 0 mm 5 mps 749 mmHg 71%
    22:00 +10°C° 0 mm 6 mps 749 mmHg 72%
    23:00 +10°C° 0.2 mm 6 mps 748 mmHg 74%

    23 April, Tuesday

    Time Temperature Precipitation Wind Pressure Humidity
    00:00 +10°C° 0.2 mm 7 mps 748 mmHg 76%
    01:00 +10°C° 0.2 mm 7 mps 748 mmHg 77%
    02:00 +9°C° 0 mm 7 mps 747 mmHg 75%
    03:00 +9°C° 0 mm 7 mps 747 mmHg 73%
    04:00 +7°C° 0 mm 8 mps 747 mmHg 70%
    05:00 +9°C° 0 mm 8 mps 747 mmHg 68%
    06:00 +9°C° 0 mm 8 mps 747 mmHg 65%
    07:00 +10°C° 0 mm 8 mps 747 mmHg 63%
    08:00 +10°C° 0.1 mm 8 mps 747 mmHg 63%
    09:00 +11°C° 0.1 mm 8 mps 747 mmHg 62%
    10:00 +11°C° 0.1 mm 8 mps 747 mmHg 62%
    11:00 +13°C° 0 mm 8 mps 747 mmHg 56%
    12:00 +16°C° 0 mm 9 mps 747 mmHg 51%
    13:00 +17°C° 0 mm 9 mps 747 mmHg 45%
    14:00 +18°C° 0 mm 9 mps 746 mmHg 44%
    15:00 +18°C° 0 mm 9 mps 746 mmHg 43%
    16:00 +18°C° 0 mm 9 mps 746 mmHg 42%
    17:00 +17°C° 0 mm 8 mps 746 mmHg 45%
    18:00 +16°C° 0 mm 8 mps 746 mmHg 47%
    19:00 +15°C° 0 mm 7 mps 746 mmHg 50%
    20:00 +15°C° 0 mm 7 mps 746 mmHg 52%
    21:00 +14°C° 0 mm 6 mps 746 mmHg 55%
    22:00 +13°C° 0 mm 6 mps 746 mmHg 57%
    23:00 +13°C° 0 mm 6 mps 746 mmHg 58%

    24 April, Wednesday

    Time Temperature Precipitation Wind Pressure Humidity
    00:00 +11°C° 0 mm 6 mps 746 mmHg 58%
    01:00 +12°C° 0 mm 5 mps 746 mmHg 59%
    02:00 +10°C° 0 mm 5 mps 747 mmHg 60%
    03:00 +10°C° 0 mm 5 mps 747 mmHg 61%
    04:00 +10°C° 0 mm 5 mps 747 mmHg 63%
    05:00 +10°C° 0 mm 5 mps 747 mmHg 61%
    06:00 +12°C° 0 mm 5 mps 747 mmHg 59%
    07:00 +12°C° 0 mm 5 mps 748 mmHg 58%
    08:00 +14°C° 0 mm 5 mps 748 mmHg 55%
    09:00 +15°C° 0 mm 5 mps 748 mmHg 52%
    10:00 +17°C° 0 mm 6 mps 748 mmHg 49%
    11:00 +19°C° 0 mm 6 mps 748 mmHg 48%
    12:00 +20°C° 0 mm 6 mps 749 mmHg 47%
    13:00 +21°C° 0 mm 6 mps 749 mmHg 45%
    14:00 +22°C° 0 mm 5 mps 749 mmHg 46%
    15:00 +22°C° 0 mm 5 mps 749 mmHg 47%
    16:00 +22°C° 0 mm 5 mps 749 mmHg 48%
    17:00 +20°C° 0 mm 4 mps 749 mmHg 54%
    18:00 +19°C° 0 mm 3 mps 749 mmHg 60%
    19:00 +18°C° 0 mm 3 mps 749 mmHg 65%
    20:00 +17°C° 0 mm 3 mps 749 mmHg 68%
    21:00 +16°C° 0 mm 3 mps 749 mmHg 71%
    22:00 +14°C° 0 mm 3 mps 750 mmHg 74%
    23:00 +14°C° 0 mm 3 mps 750 mmHg 77%
    Show more